"Pseudo-MPEC" for P225ih5

Created 2025 Jan 12 5:31:07 UT using Find_Orb

Click here for an explanation of pseudo-MPECs

 
 Astrometry: 
     P225ih5* C2025 01 06.24869801 09 47.247+49 43 55.43   ~1692 21.94wXNEOCPF52
     P225ih5  C2025 01 06.25887001 09 47.756+49 43 52.85   ~1692 21.76wXNEOCPF52
     P225ih5  C2025 01 06.26904601 09 48.251+49 43 50.27   ~1692 21.78wXNEOCPF52
     P225ih5  C2025 01 06.27922301 09 48.779+49 43 47.74   ~1692 21.86wXNEOCPF52
     P225ih5 1C2025 01 06.38197401 09 54.012+49 43 20.47   ~16NH 21.53GVNEOCPT12
     P225ih5 1C2025 01 06.38369401 09 54.102+49 43 19.92   ~16NH 21.95GVNEOCPT12
     P225ih5 KC2025 01 07.10017301 10 33.287+49 40 27.05   ~1732 21.99GVNEOCPV06
     P225ih5 KC2025 01 07.10414201 10 33.485+49 40 26.11   ~1732 22.04GVNEOCPV06
     P225ih5 KC2025 01 07.10811201 10 33.686+49 40 25.18   ~1732 21.82GVNEOCPV06
     P225ih5 KC2025 01 07.11208301 10 33.884+49 40 24.17   ~1732 21.89GVNEOCPV06

Station data:
(F52) Pan-STARRS 2, Haleakala  (N20.707382 W156.255910)  US/Hawaii.
   Observers J. Bulger, T. Dukes, T. Lowe, A. Schultz, M. Willman. Measurers
   K. Chambers, S. Chastel, T. de Boer, L. Denneau, J. Fairlamb, H.
   Flewelling, M. Huber, C.-C. Lin, E. Magnier, Y. Ramanjooloo, R. Wainscoat,
   R. Weryk. 1.8-m Ritchey-Chrétien + CCD.
(T12) Mauna Kea-UH/Tholen NEO Follow-Up (2.24-m)  (N19.822991 W155.469434)
   US/Hawaii.  Observer R. Weryk. 2.24-m f/10.1 University of Hawaii
   reflector.
(V06) Catalina Sky Survey-Kuiper  (N32.416871 W110.732550)  US/Arizona.
   Observers T. A. Pruyne, B. M. Africano, E. J. Christensen, G. A. Farneth,
   D. C. Fuls, A. R. Gibbs, A. D. Grauer, H. Gröller, J. A. Johnson, R. A.
   Kowalski, S. M. Larson, G. J. Leonard, D. Rankin, R. L. Seaman, F. C.
   Shelly, K. W. Wierzchoś. 1.55-m reflector + CCD.

Orbital elements:  P225ih5
   Perihelion 2025 May 18.32345 +/- 188 TT =  7:45:46 (JD 2460813.82345)
Epoch 2025 Jan  7.0 TT = JDT 2460682.5                           AutoNEOCP
M 323.21286858 +/- 52               (J2000 ecliptic)
n   0.28012613 +/- 0.102            Peri.  108.01096 +/- 110
a   2.31330889 +/- 0.56             Node     4.42347 +/- 10
e   0.0727378 +/- 0.191             Incl.   31.77509 +/- 2.9
P   3.51844                H 17.97  G  0.15   U 11.2  SR
q 2.14504377 +/- 0.39    Q 2.48157400 +/- 1.92
From 10 observations 2025 Jan. 6-7 (20.7 hr); mean residual 0".08
Residuals in arcseconds: 
250106 F52  .09+  .10-    250106 T12  .04-  .06+    250107 V06  .04+  .01+    
250106 F52  .10+  .07-    250106 T12  .04-  .03-    250107 V06  .06-  .02-    
250106 F52  .05-  .02-    250107 V06  .19+  .07-    
250106 F52  .12+  .10+    250107 V06  .10+  .04-    

Ephemerides (geocentric):
Date (UTC) HH   RA             Dec           delta  r     elong  mag " sig PA
---- --------  ------------   ------------  ------ ------ -----  --- --------
2025 01 12 06  01 15 49.326   +49 21 56.77  1.7331 2.1805 103.3 22.0 52.2  79
2025 01 12 07  01 15 52.138   +49 21 48.82  1.7334 2.1805 103.3 22.0 53.0  79
2025 01 12 08  01 15 54.954   +49 21 40.88  1.7338 2.1804 103.2 22.0 53.8  79
2025 01 12 09  01 15 57.775   +49 21 32.96  1.7342 2.1804 103.2 22.0 54.7  79
2025 01 12 10  01 16 00.599   +49 21 25.06  1.7345 2.1804 103.2 22.0 55.5  79
2025 01 12 11  01 16 03.427   +49 21 17.17  1.7349 2.1804 103.2 22.0 56.3  79
2025 01 12 12  01 16 06.259   +49 21 09.30  1.7352 2.1804 103.1 22.0 57.1  79
2025 01 12 13  01 16 09.095   +49 21 01.44  1.7356 2.1803 103.1 22.0 58.0  79
2025 01 12 14  01 16 11.935   +49 20 53.60  1.7360 2.1803 103.1 22.1 58.8  79
2025 01 12 15  01 16 14.779   +49 20 45.78  1.7363 2.1803 103.1 22.1 59.7  79
2025 01 12 16  01 16 17.627   +49 20 37.97  1.7367 2.1803 103.0 22.1 60.5  79
2025 01 12 17  01 16 20.479   +49 20 30.18  1.7371 2.1802 103.0 22.1 61.4  79
2025 01 12 18  01 16 23.335   +49 20 22.41  1.7374 2.1802 103.0 22.1 62.3  79
2025 01 12 19  01 16 26.194   +49 20 14.65  1.7378 2.1802 103.0 22.1 63.2  79
2025 01 12 20  01 16 29.058   +49 20 06.91  1.7382 2.1802 102.9 22.1 64.0  79
2025 01 12 21  01 16 31.926   +49 19 59.18  1.7385 2.1802 102.9 22.1 64.9  79
2025 01 12 22  01 16 34.797   +49 19 51.47  1.7389 2.1801 102.9 22.1 65.8  79
2025 01 12 23  01 16 37.673   +49 19 43.78  1.7393 2.1801 102.8 22.1 66.7  79
2025 01 13 00  01 16 40.552   +49 19 36.10  1.7396 2.1801 102.8 22.1 67.7  79
2025 01 13 01  01 16 43.436   +49 19 28.44  1.7400 2.1801 102.8 22.1 68.6  79
2025 01 13 02  01 16 46.323   +49 19 20.79  1.7404 2.1800 102.8 22.1 69.5  79
2025 01 13 03  01 16 49.214   +49 19 13.16  1.7407 2.1800 102.7 22.1 70.4  79
2025 01 13 04  01 16 52.109   +49 19 05.55  1.7411 2.1800 102.7 22.1 71.4  79
2025 01 13 05  01 16 55.008   +49 18 57.95  1.7415 2.1800 102.7 22.1 72.3  79
2025 01 13 06  01 16 57.911   +49 18 50.37  1.7418 2.1800 102.7 22.1 73.3  79
2025 01 13 07  01 17 00.818   +49 18 42.80  1.7422 2.1799 102.6 22.1 74.2  79
2025 01 13 08  01 17 03.729   +49 18 35.25  1.7425 2.1799 102.6 22.1 75.2  79
2025 01 13 09  01 17 06.644   +49 18 27.72  1.7429 2.1799 102.6 22.1 76.1  79
2025 01 13 10  01 17 09.562   +49 18 20.20  1.7433 2.1799 102.6 22.1 77.1  79
2025 01 13 11  01 17 12.485   +49 18 12.70  1.7436 2.1798 102.5 22.1 78.1  79
2025 01 13 12  01 17 15.411   +49 18 05.22  1.7440 2.1798 102.5 22.1 79.1  79
2025 01 13 13  01 17 18.341   +49 17 57.75  1.7444 2.1798 102.5 22.1 80.1  79
2025 01 13 14  01 17 21.276   +49 17 50.29  1.7447 2.1798 102.5 22.1 81.1  79
2025 01 13 15  01 17 24.214   +49 17 42.86  1.7451 2.1798 102.4 22.1 82.1  79
2025 01 13 16  01 17 27.156   +49 17 35.43  1.7455 2.1797 102.4 22.1 83.1  79
2025 01 13 17  01 17 30.101   +49 17 28.03  1.7458 2.1797 102.4 22.1 84.1  79
2025 01 13 18  01 17 33.051   +49 17 20.64  1.7462 2.1797 102.3 22.1 85.2  80
2025 01 13 19  01 17 36.005   +49 17 13.27  1.7466 2.1797 102.3 22.1 86.2  80
2025 01 13 20  01 17 38.962   +49 17 05.91  1.7469 2.1796 102.3 22.1 87.2  80
2025 01 13 21  01 17 41.924   +49 16 58.57  1.7473 2.1796 102.3 22.1 88.3  80
2025 01 13 22  01 17 44.889   +49 16 51.24  1.7477 2.1796 102.2 22.1 89.3  80
2025 01 13 23  01 17 47.858   +49 16 43.93  1.7480 2.1796 102.2 22.1 90.4  80
2025 01 14 00  01 17 50.831   +49 16 36.64  1.7484 2.1796 102.2 22.1 91.4  80
2025 01 14 01  01 17 53.808   +49 16 29.36  1.7488 2.1795 102.2 22.1 92.5  80
2025 01 14 02  01 17 56.788   +49 16 22.10  1.7491 2.1795 102.1 22.1 93.6  80
2025 01 14 03  01 17 59.773   +49 16 14.86  1.7495 2.1795 102.1 22.1 94.7  80
2025 01 14 04  01 18 02.761   +49 16 07.63  1.7499 2.1795 102.1 22.1 95.8  80
2025 01 14 05  01 18 05.753   +49 16 00.41  1.7502 2.1795 102.1 22.1 96.9  80